"Pseudo-MPEC" for A11dush

Created 2024 Nov 19 11:31:02 UT using Find_Orb

Click here for an explanation of pseudo-MPECs

 
 Astrometry: 
     A11dush* C2024 10 30.45788304 04 44.045+59 54 46.26   ~AUCH 19.37cVNEOCPT08
     A11dush  C2024 10 30.46019404 04 44.026+59 54 45.76   ~AUCH 18.90cVNEOCPT08
     A11dush  C2024 10 30.46296404 04 44.083+59 54 45.11   ~AUCH 18.92cVNEOCPT08
     A11dush  C2024 10 30.46804504 04 44.066+59 54 44.75   ~AUCH 18.64cVNEOCPT08

Station data:
(T08) ATLAS-MLO, Mauna Loa  (N19.536150 W155.576050)  US/Hawaii.  Observers
   L. Denneau, A. Heinze, H. Weiland, J. Tonry, H. Flewelling, A.
   Fitzsimmons, D. Young, B. Stalder. Measurers L. Denneau, A. Heinze, J.
   Tonry. 0.5-m f/2.0 Schmidt + CCD.

Orbital elements:  A11dush
   Perihelion 2025 Jan 26.90096 +/- 48.5 TT = 21:37:22 (JD 2460702.40096)
Epoch 2024 Oct 30.0 TT = JDT 2460613.5   Earth MOID: 0.1397      AutoNEOCP
M 330.40602657 +/- 27               (J2000 ecliptic)
n   0.33288700 +/- 0.323            Peri.  231.04434 +/- 80
a   2.06191845 +/- 1.33             Node   256.00574 +/- 38
e   0.5125318 +/- 0.257             Incl.   28.15719 +/- 12
P   2.96079                H 18.02  G  0.15   U 12.0  SR
q 1.00511957 +/- 0.498    Q 3.11871733 +/- 125
From 4 observations 2024 Oct. 30 (14.6 min); mean residual 0".15
Residuals in arcseconds: 
241030 T08  .03+  .14+    241030 T08  .20+  .26-    
241030 T08  .17-  .02-    241030 T08  .04-  .14+    

Ephemerides (geocentric):
Date (UTC) HH   RA             Dec           delta  r     elong  mag " sig PA
---- --------  ------------   ------------  ------ ------ -----  --- --------
2024 11 19 12  03 57 46.769   +54 21 34.91  .34364 1.2850 145.0 17.4  47d  33
2024 11 19 13  03 57 44.580   +54 20 00.26  .34322 1.2847 145.1 17.4  47d  33
2024 11 19 14  03 57 42.387   +54 18 25.27  .34281 1.2844 145.1 17.4  47d  33
2024 11 19 15  03 57 40.189   +54 16 49.96  .34239 1.2841 145.2 17.4  47d  34
2024 11 19 16  03 57 37.988   +54 15 14.31  .34197 1.2838 145.2 17.4  47d  34
2024 11 19 17  03 57 35.783   +54 13 38.33  .34156 1.2836 145.2 17.4  47d  34
2024 11 19 18  03 57 33.573   +54 12 02.01  .34114 1.2833 145.3 17.4  47d  35
2024 11 19 19  03 57 31.360   +54 10 25.36  .34073 1.2830 145.3 17.4  47d  35
2024 11 19 20  03 57 29.143   +54 08 48.38  .34031 1.2827 145.3 17.4  46d 174
2024 11 19 21  03 57 26.922   +54 07 11.05  .33990 1.2825 145.4 17.4  46d 174
2024 11 19 22  03 57 24.696   +54 05 33.39  .33948 1.2822 145.4 17.4  45d 174
2024 11 19 23  03 57 22.467   +54 03 55.39  .33907 1.2819 145.5 17.4  47d 143
2024 11 20 00  03 57 20.234   +54 02 17.05  .33865 1.2816 145.5 17.4  47d 142
2024 11 20 01  03 57 17.997   +54 00 38.37  .33824 1.2813 145.5 17.4  47d 142
2024 11 20 02  03 57 15.756   +53 58 59.35  .33782 1.2811 145.6 17.4  47d 142
2024 11 20 03  03 57 13.512   +53 57 19.98  .33741 1.2808 145.6 17.4  47d 142
2024 11 20 04  03 57 11.263   +53 55 40.27  .33700 1.2805 145.7 17.4  47d 141
2024 11 20 05  03 57 09.011   +53 54 00.21  .33658 1.2802 145.7 17.4  47d 141
2024 11 20 06  03 57 06.754   +53 52 19.81  .33617 1.2800 145.7 17.4  47d 141
2024 11 20 07  03 57 04.494   +53 50 39.06  .33576 1.2797 145.8 17.4  47d 141
2024 11 20 08  03 57 02.231   +53 48 57.96  .33534 1.2794 145.8 17.4  47d 140
2024 11 20 09  03 56 59.963   +53 47 16.52  .33493 1.2791 145.9 17.4  47d 140
2024 11 20 10  03 56 57.692   +53 45 34.72  .33452 1.2789 145.9 17.3  47d 140
2024 11 20 11  03 56 55.416   +53 43 52.57  .33411 1.2786 146.0 17.3  49d 138
2024 11 20 12  03 56 53.138   +53 42 10.07  .33370 1.2783 146.0 17.3  51d 137
2024 11 20 13  03 56 50.855   +53 40 27.22  .33329 1.2780 146.0 17.3  51d 137
2024 11 20 14  03 56 48.569   +53 38 44.01  .33287 1.2777 146.1 17.3  51d 137
2024 11 20 15  03 56 46.279   +53 37 00.45  .33246 1.2775 146.1 17.3  51d 137
2024 11 20 16  03 56 43.985   +53 35 16.53  .33205 1.2772 146.2 17.3  51d 137
2024 11 20 17  03 56 41.688   +53 33 32.25  .33164 1.2769 146.2 17.3  51d 137
2024 11 20 18  03 56 39.387   +53 31 47.61  .33123 1.2766 146.2 17.3  51d 137
2024 11 20 19  03 56 37.082   +53 30 02.62  .33082 1.2764 146.3 17.3  51d 137
2024 11 20 20  03 56 34.774   +53 28 17.26  .33041 1.2761 146.3 17.3  51d 137
2024 11 20 21  03 56 32.463   +53 26 31.54  .33000 1.2758 146.4 17.3  51d 137
2024 11 20 22  03 56 30.147   +53 24 45.46  .32959 1.2755 146.4 17.3  51d 137
2024 11 20 23  03 56 27.828   +53 22 59.02  .32918 1.2753 146.4 17.3  51d 136
2024 11 21 00  03 56 25.506   +53 21 12.21  .32878 1.2750 146.5 17.3  51d 136
2024 11 21 01  03 56 23.180   +53 19 25.03  .32837 1.2747 146.5 17.3  53d 137
2024 11 21 02  03 56 20.851   +53 17 37.49  .32796 1.2744 146.6 17.3  53d 136
2024 11 21 03  03 56 18.518   +53 15 49.58  .32755 1.2742 146.6 17.3  53d 136
2024 11 21 04  03 56 16.181   +53 14 01.30  .32714 1.2739 146.6 17.3  53d 136
2024 11 21 05  03 56 13.841   +53 12 12.65  .32674 1.2736 146.7 17.3  53d 136
2024 11 21 06  03 56 11.498   +53 10 23.63  .32633 1.2733 146.7 17.3  53d 136
2024 11 21 07  03 56 09.152   +53 08 34.24  .32592 1.2730 146.8 17.3  53d 136
2024 11 21 08  03 56 06.801   +53 06 44.47  .32551 1.2728 146.8 17.3  53d 136
2024 11 21 09  03 56 04.448   +53 04 54.33  .32511 1.2725 146.9 17.3  53d 136
2024 11 21 10  03 56 02.091   +53 03 03.81  .32470 1.2722 146.9 17.3  53d 136
2024 11 21 11  03 55 59.731   +53 01 12.91  .32430 1.2719 146.9 17.3  53d 136